HVN359 VVDN-VVNB

Flight info

Callsign HVN359
Flight time 1h 5m
Altitude 24000
Route VIDEN2G VIDEN Q2 BISON I11LX
Aircraft A359/H-SDE2E3GHIJ3J4J5LM1ORWXY/LB1D1

Departure

Time 2026-04-29 02:51
Airport Da Nang International Airport (VVDN)

Arrival

Time 2026-04-29 03:56
Airport Noi Bai International Airport (VVNB)
Time Latitude Longitude Altitude Speed Heading
2026-04-29 02:20 16.05408 108.20158 41 ft 0 kts 83°
2026-04-29 02:37 16.05407 108.20154 41 ft 2 kts 84°
2026-04-29 02:38 16.05407 108.20137 41 ft 2 kts 91°
2026-04-29 02:38 16.05408 108.20120 40 ft 2 kts 104°
2026-04-29 02:38 16.05415 108.20104 37 ft 2 kts 128°
2026-04-29 02:38 16.05427 108.20093 38 ft 2 kts 158°
2026-04-29 02:39 16.05441 108.20089 37 ft 1 kts 170°
2026-04-29 02:39 16.05443 108.20089 41 ft 0 kts 171°
2026-04-29 02:42 16.05442 108.20089 41 ft 1 kts 170°
2026-04-29 02:42 16.05421 108.20094 41 ft 6 kts 168°
2026-04-29 02:42 16.05367 108.20103 40 ft 10 kts 174°
2026-04-29 02:42 16.05287 108.20112 41 ft 13 kts 171°
2026-04-29 02:43 16.05198 108.20124 41 ft 9 kts 183°
2026-04-29 02:43 16.05157 108.20090 41 ft 8 kts 214°
2026-04-29 02:43 16.05116 108.20082 40 ft 10 kts 187°
2026-04-29 02:43 16.05032 108.20088 40 ft 14 kts 172°
2026-04-29 02:44 16.04923 108.20105 40 ft 18 kts 171°
2026-04-29 02:44 16.04790 108.20126 40 ft 21 kts 172°
2026-04-29 02:44 16.04639 108.20149 40 ft 23 kts 172°
2026-04-29 02:44 16.04467 108.20175 40 ft 26 kts 172°
2026-04-29 02:45 16.04278 108.20202 40 ft 28 kts 173°
2026-04-29 02:45 16.04078 108.20227 41 ft 30 kts 173°
2026-04-29 02:45 16.03862 108.20257 41 ft 32 kts 171°
2026-04-29 02:45 16.03634 108.20292 41 ft 34 kts 172°
2026-04-29 02:46 16.03424 108.20323 40 ft 25 kts 172°
2026-04-29 02:46 16.03246 108.20347 39 ft 22 kts 172°
2026-04-29 02:46 16.03114 108.20367 39 ft 12 kts 170°
2026-04-29 02:46 16.03017 108.20381 39 ft 16 kts 176°
2026-04-29 02:47 16.02987 108.20378 39 ft 0 kts 191°
2026-04-29 02:47 16.02973 108.20373 39 ft 5 kts 204°
2026-04-29 02:47 16.02938 108.20334 38 ft 10 kts 240°
2026-04-29 02:47 16.02926 108.20281 37 ft 4 kts 272°
2026-04-29 02:48 16.02952 108.20255 37 ft 7 kts 331°
2026-04-29 02:48 16.03010 108.20241 37 ft 9 kts 351°
2026-04-29 02:48 16.03017 108.20240 37 ft 0 kts 351°
2026-04-29 02:50 16.03046 108.20235 37 ft 25 kts 351°
2026-04-29 02:51 16.03522 108.20163 40 ft 110 kts 353°
2026-04-29 02:51 16.04531 108.20027 49 ft 178 kts 354°
2026-04-29 02:51 16.05848 108.19894 660 ft 189 kts 354°
2026-04-29 02:51 16.07104 108.19716 1766 ft 180 kts 359°
2026-04-29 02:52 16.08395 108.19714 2203 ft 194 kts
2026-04-29 02:52 16.09837 108.19751 2379 ft 222 kts
2026-04-29 02:52 16.11457 108.19772 2617 ft 248 kts
2026-04-29 02:52 16.13226 108.19771 3152 ft 259 kts
2026-04-29 02:53 16.15060 108.19757 3871 ft 263 kts
2026-04-29 02:53 16.16903 108.19734 4572 ft 266 kts
2026-04-29 02:53 16.18745 108.19705 5258 ft 270 kts
2026-04-29 02:53 16.20633 108.19672 5941 ft 273 kts
2026-04-29 02:54 16.22548 108.19636 6625 ft 276 kts
2026-04-29 02:54 16.24476 108.19599 7303 ft 278 kts
2026-04-29 02:54 16.26422 108.19561 7975 ft 281 kts
2026-04-29 02:54 16.28389 108.19522 8607 ft 284 kts
2026-04-29 02:55 16.30375 108.19483 9245 ft 286 kts
2026-04-29 02:55 16.32381 108.19441 9874 ft 289 kts
2026-04-29 02:55 16.34415 108.19222 10328 ft 300 kts 351°
2026-04-29 02:55 16.36510 108.18764 10609 ft 314 kts 348°
2026-04-29 02:56 16.38667 108.18266 10903 ft 327 kts 349°
2026-04-29 02:56 16.40948 108.17747 11337 ft 334 kts 349°
2026-04-29 02:56 16.43232 108.17229 11834 ft 338 kts 349°
2026-04-29 02:56 16.45510 108.16712 12318 ft 342 kts 349°
2026-04-29 02:57 16.47851 108.16181 12813 ft 346 kts 349°
2026-04-29 02:57 16.50210 108.15645 13295 ft 349 kts 349°
2026-04-29 02:57 16.52593 108.15103 13786 ft 352 kts 349°
2026-04-29 02:57 16.54990 108.14559 14272 ft 354 kts 349°
2026-04-29 02:58 16.57381 108.13888 14658 ft 358 kts 339°
2026-04-29 02:58 16.59479 108.12503 15110 ft 359 kts 318°
2026-04-29 02:58 16.60989 108.10444 15599 ft 360 kts 298°
2026-04-29 02:58 16.61884 108.08005 16120 ft 361 kts 289°
2026-04-29 02:59 16.62712 108.05518 16581 ft 363 kts 291°
2026-04-29 02:59 16.63588 108.03199 16988 ft 366 kts 293°
2026-04-29 02:59 16.64610 108.00679 17442 ft 369 kts 294°
2026-04-29 02:59 16.65643 107.98222 17857 ft 372 kts 295°
2026-04-29 03:00 16.66702 107.95747 18268 ft 374 kts 295°
2026-04-29 03:00 16.67776 107.93263 18686 ft 377 kts 295°
2026-04-29 03:00 16.68860 107.90766 19102 ft 379 kts 295°
2026-04-29 03:00 16.69956 107.88253 19519 ft 382 kts 296°
2026-04-29 03:01 16.71066 107.85721 19903 ft 384 kts 295°
2026-04-29 03:01 16.72171 107.83185 20285 ft 386 kts 295°
2026-04-29 03:01 16.73272 107.80658 20668 ft 388 kts 295°
2026-04-29 03:01 16.74394 107.78085 21037 ft 391 kts 295°
2026-04-29 03:02 16.75522 107.75498 21402 ft 393 kts 295°
2026-04-29 03:02 16.76663 107.72881 21764 ft 395 kts 295°
2026-04-29 03:02 16.77802 107.70271 22108 ft 397 kts 295°
2026-04-29 03:02 16.78951 107.67634 22458 ft 399 kts 295°
2026-04-29 03:03 16.80104 107.64988 22797 ft 402 kts 295°
2026-04-29 03:03 16.81260 107.62334 23132 ft 404 kts 295°
2026-04-29 03:03 16.82426 107.59654 23464 ft 406 kts 295°
2026-04-29 03:03 16.83599 107.56960 23785 ft 408 kts 295°
2026-04-29 03:04 16.84774 107.54261 23977 ft 407 kts 295°
2026-04-29 03:04 16.85925 107.51612 24013 ft 396 kts 295°
2026-04-29 03:04 16.87053 107.49009 24011 ft 389 kts 295°
2026-04-29 03:04 16.88176 107.46447 24008 ft 388 kts 296°
2026-04-29 03:05 16.89541 107.44053 24011 ft 388 kts 309°
2026-04-29 03:05 16.91477 107.42110 24005 ft 387 kts 326°
2026-04-29 03:05 16.93822 107.40748 23996 ft 388 kts 336°
2026-04-29 03:05 16.96290 107.39570 23996 ft 391 kts 336°
2026-04-29 03:06 16.98763 107.38374 23999 ft 392 kts 336°
2026-04-29 03:06 17.01232 107.37167 24000 ft 392 kts 336°
2026-04-29 03:06 17.03702 107.35960 24000 ft 392 kts 336°
2026-04-29 03:06 17.06183 107.34764 24000 ft 392 kts 336°
2026-04-29 03:07 17.08659 107.33565 24000 ft 392 kts 336°
2026-04-29 03:07 17.11126 107.32356 24000 ft 392 kts 336°
2026-04-29 03:07 17.13596 107.31129 24000 ft 392 kts 335°
2026-04-29 03:07 17.16057 107.29896 24000 ft 392 kts 335°
2026-04-29 03:08 17.18505 107.28663 24000 ft 392 kts 335°
2026-04-29 03:08 17.20964 107.27423 24000 ft 392 kts 335°
2026-04-29 03:08 17.23419 107.26183 24000 ft 392 kts 335°
2026-04-29 03:08 17.25878 107.24941 24000 ft 392 kts 335°
2026-04-29 03:09 17.28304 107.23717 24000 ft 392 kts 335°
2026-04-29 03:09 17.30763 107.22476 24000 ft 392 kts 335°
2026-04-29 03:09 17.33216 107.21238 24000 ft 392 kts 335°
2026-04-29 03:09 17.35675 107.19997 24000 ft 392 kts 335°
2026-04-29 03:10 17.38142 107.18752 24000 ft 392 kts 335°
2026-04-29 03:10 17.40601 107.17510 24000 ft 392 kts 335°
2026-04-29 03:10 17.43051 107.16272 24000 ft 392 kts 335°
2026-04-29 03:10 17.45503 107.15033 24000 ft 392 kts 335°
2026-04-29 03:11 17.47964 107.13789 24000 ft 392 kts 335°
2026-04-29 03:11 17.50413 107.12551 24000 ft 392 kts 335°
2026-04-29 03:11 17.52865 107.11310 24000 ft 392 kts 335°
2026-04-29 03:11 17.55318 107.10069 24002 ft 392 kts 335°
2026-04-29 03:12 17.57783 107.08822 24000 ft 392 kts 335°
2026-04-29 03:12 17.60233 107.07581 24000 ft 392 kts 335°
2026-04-29 03:12 17.62657 107.06354 24000 ft 392 kts 335°
2026-04-29 03:12 17.65114 107.05109 24000 ft 392 kts 335°
2026-04-29 03:13 17.67566 107.03867 24000 ft 392 kts 335°
2026-04-29 03:13 17.70024 107.02621 24000 ft 392 kts 335°
2026-04-29 03:13 17.72476 107.01377 24000 ft 392 kts 335°
2026-04-29 03:13 17.74925 107.00135 24000 ft 392 kts 335°
2026-04-29 03:14 17.77383 106.98888 24000 ft 392 kts 335°
2026-04-29 03:14 17.79839 106.97642 24000 ft 392 kts 335°
2026-04-29 03:14 17.82284 106.96400 24002 ft 392 kts 335°
2026-04-29 03:14 17.84738 106.95154 24000 ft 392 kts 335°
2026-04-29 03:15 17.87196 106.93906 24000 ft 392 kts 335°
2026-04-29 03:15 17.89650 106.92661 24000 ft 392 kts 335°
2026-04-29 03:15 17.92107 106.91419 24000 ft 392 kts 335°
2026-04-29 03:15 17.94553 106.90188 24000 ft 392 kts 335°
2026-04-29 03:16 17.97014 106.88950 24000 ft 392 kts 335°
2026-04-29 03:16 17.99471 106.87714 24000 ft 392 kts 335°
2026-04-29 03:16 18.01931 106.86475 24000 ft 392 kts 335°
2026-04-29 03:16 18.04390 106.85236 24000 ft 392 kts 335°
2026-04-29 03:17 18.06817 106.84012 24000 ft 392 kts 335°
2026-04-29 03:17 18.09273 106.82773 24000 ft 391 kts 335°
2026-04-29 03:17 18.11731 106.81532 24000 ft 391 kts 335°
2026-04-29 03:17 18.14217 106.80276 24000 ft 391 kts 335°
2026-04-29 03:18 18.16638 106.79053 24000 ft 391 kts 335°
2026-04-29 03:18 18.19121 106.77799 24000 ft 391 kts 335°
2026-04-29 03:18 18.21543 106.76574 24000 ft 391 kts 335°
2026-04-29 03:18 18.24005 106.75330 24000 ft 391 kts 335°
2026-04-29 03:19 18.26465 106.74086 24000 ft 391 kts 335°
2026-04-29 03:19 18.28913 106.72848 24003 ft 391 kts 335°
2026-04-29 03:19 18.31369 106.71605 24000 ft 391 kts 335°
2026-04-29 03:19 18.33832 106.70358 24000 ft 391 kts 335°
2026-04-29 03:20 18.36284 106.69116 24000 ft 391 kts 335°
2026-04-29 03:20 18.38739 106.67873 24000 ft 391 kts 335°
2026-04-29 03:20 18.41194 106.66629 24000 ft 391 kts 335°
2026-04-29 03:20 18.43622 106.65398 24000 ft 391 kts 335°
2026-04-29 03:21 18.46085 106.64149 24000 ft 391 kts 335°
2026-04-29 03:21 18.48533 106.62908 24000 ft 391 kts 335°
2026-04-29 03:21 18.50982 106.61665 24000 ft 391 kts 335°
2026-04-29 03:21 18.53436 106.60420 24000 ft 391 kts 335°
2026-04-29 03:22 18.55893 106.59173 24000 ft 391 kts 335°
2026-04-29 03:22 18.58357 106.57926 24000 ft 391 kts 335°
2026-04-29 03:22 18.60808 106.56690 24000 ft 391 kts 335°
2026-04-29 03:22 18.63266 106.55452 24000 ft 391 kts 335°
2026-04-29 03:23 18.65720 106.54215 24000 ft 391 kts 335°
2026-04-29 03:23 18.68181 106.52974 24000 ft 391 kts 335°
2026-04-29 03:23 18.70639 106.51734 24000 ft 391 kts 335°
2026-04-29 03:23 18.73093 106.50495 24000 ft 391 kts 335°
2026-04-29 03:24 18.75520 106.49269 24000 ft 391 kts 335°
2026-04-29 03:24 18.77977 106.48027 24000 ft 391 kts 335°
2026-04-29 03:24 18.80434 106.46785 24000 ft 391 kts 335°
2026-04-29 03:24 18.82912 106.45532 24000 ft 391 kts 335°
2026-04-29 03:25 18.85347 106.44301 24000 ft 391 kts 335°
2026-04-29 03:25 18.87831 106.43044 24000 ft 391 kts 335°
2026-04-29 03:25 18.90251 106.41819 24000 ft 391 kts 335°
2026-04-29 03:25 18.92717 106.40573 24000 ft 391 kts 336°
2026-04-29 03:26 18.95175 106.39335 24000 ft 391 kts 336°
2026-04-29 03:26 18.97631 106.38099 24000 ft 391 kts 336°
2026-04-29 03:26 19.00094 106.36861 24000 ft 391 kts 336°
2026-04-29 03:26 19.02552 106.35623 24000 ft 391 kts 336°
2026-04-29 03:27 19.05005 106.34388 24003 ft 391 kts 336°
2026-04-29 03:27 19.07462 106.33150 24000 ft 391 kts 336°
2026-04-29 03:27 19.09916 106.31913 24000 ft 391 kts 336°
2026-04-29 03:27 19.12377 106.30671 24000 ft 391 kts 336°
2026-04-29 03:28 19.14809 106.29444 24000 ft 391 kts 336°
2026-04-29 03:28 19.17259 106.28208 24000 ft 391 kts 336°
2026-04-29 03:28 19.19722 106.26964 24000 ft 391 kts 336°
2026-04-29 03:28 19.22177 106.25725 24000 ft 391 kts 336°
2026-04-29 03:29 19.24629 106.24486 24000 ft 391 kts 336°
2026-04-29 03:29 19.27089 106.23243 24000 ft 391 kts 335°
2026-04-29 03:29 19.29539 106.22004 24000 ft 391 kts 335°
2026-04-29 03:29 19.31995 106.20762 24000 ft 391 kts 335°
2026-04-29 03:30 19.34459 106.19515 24000 ft 391 kts 335°
2026-04-29 03:30 19.36908 106.18276 24000 ft 391 kts 335°
2026-04-29 03:30 19.39367 106.17032 24000 ft 391 kts 335°
2026-04-29 03:30 19.40995 106.16207 24000 ft 391 kts 335°
2026-04-29 03:31 19.45916 106.13715 24000 ft 391 kts 335°
2026-04-29 03:31 19.49164 106.12069 24000 ft 391 kts 335°
2026-04-29 03:31 19.51624 106.10821 24000 ft 391 kts 335°
2026-04-29 03:32 19.53251 106.10001 24000 ft 391 kts 336°
2026-04-29 03:32 19.55709 106.08767 24000 ft 391 kts 336°
2026-04-29 03:32 19.58170 106.07534 24000 ft 391 kts 336°
2026-04-29 03:32 19.60628 106.06303 24000 ft 391 kts 336°
2026-04-29 03:33 19.63089 106.05070 24000 ft 391 kts 336°
2026-04-29 03:33 19.65544 106.03838 24000 ft 391 kts 336°
2026-04-29 03:33 19.68014 106.02598 24000 ft 391 kts 336°
2026-04-29 03:33 19.70465 106.01366 24000 ft 391 kts 336°
2026-04-29 03:34 19.72924 106.00130 24000 ft 391 kts 336°
2026-04-29 03:34 19.75384 105.98892 24000 ft 391 kts 336°
2026-04-29 03:34 19.77839 105.97657 24000 ft 391 kts 336°
2026-04-29 03:34 19.80300 105.96419 24000 ft 391 kts 336°
2026-04-29 03:35 19.82761 105.95180 24000 ft 391 kts 336°
2026-04-29 03:35 19.85218 105.93942 24000 ft 391 kts 336°
2026-04-29 03:35 19.87675 105.92704 24001 ft 391 kts 336°
2026-04-29 03:35 19.90137 105.91464 24000 ft 391 kts 336°
2026-04-29 03:36 19.92571 105.90237 24000 ft 391 kts 336°
2026-04-29 03:36 19.95029 105.88997 24000 ft 391 kts 336°
2026-04-29 03:36 19.97487 105.87757 24000 ft 391 kts 336°
2026-04-29 03:36 19.99938 105.86520 24000 ft 391 kts 336°
2026-04-29 03:37 20.02403 105.85276 24001 ft 391 kts 336°
2026-04-29 03:37 20.04857 105.84036 23990 ft 390 kts 336°
2026-04-29 03:37 20.07358 105.82776 23873 ft 407 kts 336°
2026-04-29 03:37 20.09904 105.81500 23379 ft 404 kts 336°
2026-04-29 03:38 20.12447 105.80222 22747 ft 404 kts 336°
2026-04-29 03:38 20.14982 105.78942 22178 ft 402 kts 335°
2026-04-29 03:38 20.17500 105.77666 21632 ft 399 kts 335°
2026-04-29 03:38 20.20006 105.76396 21058 ft 397 kts 335°
2026-04-29 03:39 20.22488 105.75137 20502 ft 394 kts 335°
2026-04-29 03:39 20.24930 105.73898 19954 ft 392 kts 335°
2026-04-29 03:39 20.27381 105.72655 19398 ft 389 kts 335°
2026-04-29 03:39 20.29856 105.71399 18843 ft 387 kts 335°
2026-04-29 03:40 20.32236 105.70192 18297 ft 384 kts 335°
2026-04-29 03:40 20.34647 105.68968 17748 ft 382 kts 335°
2026-04-29 03:40 20.37033 105.67756 17197 ft 379 kts 335°
2026-04-29 03:40 20.39411 105.66549 16656 ft 376 kts 335°
2026-04-29 03:41 20.41763 105.65374 16124 ft 373 kts 337°
2026-04-29 03:41 20.44236 105.64570 15524 ft 371 kts 351°
2026-04-29 03:41 20.46797 105.64236 14935 ft 368 kts 356°
2026-04-29 03:41 20.49330 105.64002 14393 ft 364 kts 356°
2026-04-29 03:42 20.51847 105.63788 13866 ft 361 kts 356°
2026-04-29 03:42 20.54352 105.63588 13337 ft 358 kts 357°
2026-04-29 03:42 20.56817 105.63400 12814 ft 355 kts 357°
2026-04-29 03:42 20.59276 105.63216 12290 ft 352 kts 357°
2026-04-29 03:43 20.61726 105.63035 11765 ft 349 kts 357°
2026-04-29 03:43 20.64133 105.62859 11248 ft 346 kts 357°
2026-04-29 03:43 20.66525 105.62684 10876 ft 338 kts 357°
2026-04-29 03:43 20.68785 105.62518 10752 ft 321 kts 357°
2026-04-29 03:44 20.70983 105.62357 10639 ft 305 kts 357°
2026-04-29 03:44 20.73025 105.62204 10543 ft 291 kts 357°
2026-04-29 03:44 20.75012 105.62052 10360 ft 284 kts 357°
2026-04-29 03:44 20.76986 105.61903 10012 ft 283 kts 357°
2026-04-29 03:45 20.78955 105.61756 9654 ft 287 kts 357°
2026-04-29 03:45 20.80969 105.61611 9309 ft 291 kts 357°
2026-04-29 03:45 20.82999 105.61466 8965 ft 291 kts 357°
2026-04-29 03:45 20.85009 105.61322 8589 ft 289 kts 357°
2026-04-29 03:46 20.86964 105.61181 8238 ft 287 kts 357°
2026-04-29 03:46 20.88947 105.61036 7895 ft 285 kts 357°
2026-04-29 03:46 20.90918 105.60893 7558 ft 284 kts 357°
2026-04-29 03:46 20.92885 105.60750 7227 ft 282 kts 357°
2026-04-29 03:47 20.94822 105.60610 6891 ft 281 kts 357°
2026-04-29 03:47 20.96787 105.60467 6554 ft 280 kts 357°
2026-04-29 03:47 20.98704 105.60328 6229 ft 278 kts 357°
2026-04-29 03:47 21.00637 105.60187 5896 ft 277 kts 357°
2026-04-29 03:48 21.02551 105.60048 5569 ft 276 kts 357°
2026-04-29 03:48 21.04460 105.59908 5314 ft 270 kts 357°
2026-04-29 03:48 21.06287 105.59771 5200 ft 257 kts 357°
2026-04-29 03:48 21.08031 105.59637 5083 ft 245 kts 357°
2026-04-29 03:49 21.09678 105.59508 4971 ft 234 kts 357°
2026-04-29 03:49 21.11271 105.59383 4858 ft 224 kts 357°
2026-04-29 03:49 21.12796 105.59262 4684 ft 218 kts 357°
2026-04-29 03:49 21.14305 105.59146 4483 ft 217 kts 357°
2026-04-29 03:50 21.15813 105.59031 4258 ft 217 kts 357°
2026-04-29 03:50 21.17302 105.58950 4037 ft 216 kts
2026-04-29 03:50 21.18765 105.59255 3821 ft 215 kts 21°
2026-04-29 03:50 21.20161 105.59826 3666 ft 208 kts 23°
2026-04-29 03:51 21.21464 105.60368 3538 ft 200 kts 22°
2026-04-29 03:51 21.22755 105.60892 3350 ft 196 kts 22°
2026-04-29 03:51 21.24031 105.61406 3111 ft 194 kts 22°
2026-04-29 03:51 21.25282 105.61940 2880 ft 193 kts 26°
2026-04-29 03:52 21.26319 105.62820 2623 ft 192 kts 57°
2026-04-29 03:52 21.26694 105.64165 2368 ft 188 kts 86°
2026-04-29 03:52 21.26566 105.65507 2283 ft 175 kts 112°
2026-04-29 03:52 21.26133 105.66663 2268 ft 159 kts 115°
2026-04-29 03:53 21.25785 105.67745 2189 ft 151 kts 106°
2026-04-29 03:53 21.25528 105.68835 2036 ft 150 kts 109°
2026-04-29 03:53 21.25211 105.69900 1833 ft 149 kts 111°
2026-04-29 03:53 21.24904 105.70947 1642 ft 149 kts 110°
2026-04-29 03:54 21.24604 105.72003 1445 ft 142 kts 110°
2026-04-29 03:54 21.24328 105.72973 1270 ft 134 kts 110°
2026-04-29 03:54 21.24083 105.73828 1104 ft 132 kts 110°
2026-04-29 03:54 21.23827 105.74718 945 ft 133 kts 110°
2026-04-29 03:55 21.23555 105.75667 766 ft 133 kts 110°
2026-04-29 03:55 21.23282 105.76617 588 ft 133 kts 110°
2026-04-29 03:55 21.23011 105.77562 407 ft 133 kts 110°
2026-04-29 03:55 21.22738 105.78511 237 ft 133 kts 110°
2026-04-29 03:56 21.22466 105.79457 85 ft 131 kts 107°
2026-04-29 03:56 21.22219 105.80330 51 ft 105 kts 107°
2026-04-29 03:56 21.22089 105.80778 54 ft 19 kts 107°
2026-04-29 03:56 21.22084 105.80795 54 ft 2 kts 107°
2026-04-29 03:57 21.22070 105.80847 55 ft 13 kts 106°
2026-04-29 03:57 21.22036 105.80975 51 ft 20 kts 106°
2026-04-29 03:57 21.21993 105.81133 50 ft 24 kts 106°
2026-04-29 03:57 21.21942 105.81321 51 ft 28 kts 107°
2026-04-29 03:58 21.21882 105.81524 51 ft 30 kts 108°
2026-04-29 03:58 21.21812 105.81722 51 ft 27 kts 111°
2026-04-29 03:58 21.21751 105.81919 52 ft 29 kts 107°
2026-04-29 03:58 21.21699 105.82121 52 ft 24 kts 107°